Location: Marcé
(47.5801°N, 0.3280°W)
Time: 17:23:46
(UTC+01:00)

SR - Pass Details

Date: 01 December 2021
Orbit: 582 x 872 km, 66.7° (Epoch: 22 January)

Event Time Altitude Azimuth Distance (km) Brightness Sun altitude
Rises 10:00:35 0° 322° (NW) 2,820 ? 10.8°
Reaches altitude 10° 10:02:48 10° 318° (NW) 1,927 ? 11.0°
Maximum altitude 10:07:01 56° 240° (WSW) 724 ? 11.5°
Drops below altitude 10° 10:11:26 10° 163° (SSE) 2,016 ? 11.9°
Sets 10:13:49 0° 159° (SSE) 2,963 ? 12.2°
